Location: Unspecified
(0.0000°N, 0.0000°E)
Time: 08:02:48
(UTC+00:00)

Vanguard 1 Rocket - All Passes

Search period start: 20 October 2021 00:00
Search period end: 30 October 2021 00:00
Orbit: 650 x 4226 km, 34.3° (Epoch: 19 October)

Date Brightness Start Highest point End Pass type
(mag) Time Alt. Az. Time Alt. Az. Time Alt. Az.
20 Oct - 01:14:24 10° SW 01:20:29 18° SSW 01:29:18 10° SSE visible
20 Oct - 03:46:33 10° SSW 03:56:12 16° S 04:08:42 10° SE visible
20 Oct - 06:15:24 10° SSW 06:35:30 33° SSE 06:56:45 10° E daylight
20 Oct - 08:45:02 10° SW 09:11:36 71° SE 09:31:03 10° ENE daylight
20 Oct - 11:20:02 10° WSW 11:43:22 51° NW 11:57:11 10° NNE daylight
20 Oct - 14:07:45 10° NW 14:12:56 12° NW 14:17:12 10° NNW daylight
20 Oct - 21:35:34 10° NW 21:40:08 71° NE 21:47:08 10° ESE night (unlit)
21 Oct - 00:01:37 10° WSW 00:07:00 23° SSW 00:15:20 10° SSE visible
21 Oct - 02:33:25 10° SSW 02:39:40 14° S 02:47:41 10° SSE visible
21 Oct - 05:02:42 10° SSW 05:18:05 24° SSE 05:36:52 10° ESE visible
21 Oct - 07:30:57 10° SW 07:55:28 53° SE 08:17:12 10° ENE daylight
21 Oct - 10:02:49 10° WSW 10:29:12 74° NW 10:46:06 10° NE daylight
21 Oct - 12:43:57 10° W 12:59:27 25° NW 13:09:31 10° NNE daylight
21 Oct - 20:25:42 10° NNW 20:29:23 25° NE 20:33:48 10° E night (unlit)
21 Oct - 22:49:42 10° W 22:54:34 34° SSW 23:02:24 10° SE night (unlit)
22 Oct - 01:19:52 10° SW 01:24:33 14° S 01:30:35 10° SSE visible
22 Oct - 03:50:32 10° SSW 04:00:48 17° SSE 04:14:04 10° SE visible
22 Oct - 06:17:48 10° SSW 06:38:51 39° SSE 07:01:12 10° E daylight
22 Oct - 08:47:18 10° SW 09:14:03 83° SE 09:33:59 10° NE daylight
22 Oct - 11:23:33 10° WSW 11:45:46 42° NW 11:59:35 10° NNE daylight
22 Oct - 21:38:33 10° WNW 21:43:05 68° SW 21:49:53 10° SE night (unlit)
23 Oct - 00:06:24 10° SW 00:10:45 16° SSW 00:16:39 10° SSE visible
23 Oct - 02:38:43 10° SSW 02:44:11 13° S 02:50:54 10° SSE visible
23 Oct - 05:05:28 10° SSW 05:21:59 28° SSE 05:42:17 10° E visible
23 Oct - 07:33:10 10° SW 07:58:08 63° SE 08:20:33 10° ENE daylight
23 Oct - 10:05:38 10° WSW 10:31:29 63° NW 10:48:38 10° NE daylight
23 Oct - 12:49:16 10° WNW 13:02:29 20° NW 13:11:38 10° N daylight
23 Oct - 20:28:04 10° NW 20:32:15 45° NE 20:37:21 10° ESE visible
23 Oct - 22:53:43 10° WSW 22:58:00 22° SSW 23:04:13 10° SSE night (unlit)
24 Oct - 01:26:55 10° S 01:28:46 10° S 01:30:49 10° S visible
24 Oct - 03:53:49 10° SSW 04:05:09 19° SSE 04:19:56 10° ESE visible
24 Oct - 06:20:07 10° SW 06:41:49 46° SE 07:05:13 10° ENE daylight
24 Oct - 08:49:45 10° SW 09:16:21 85° NW 09:36:44 10° NE daylight
24 Oct - 11:27:34 10° W 11:48:21 35° NW 12:01:54 10° NNE daylight
24 Oct - 19:18:23 10° N 19:21:18 16° NNE 19:24:12 10° ENE visible
24 Oct - 21:41:54 10° W 21:46:11 39° SSW 21:52:17 10° SE night (unlit)
25 Oct - 00:12:45 10° SSW 00:14:38 11° S 00:16:44 10° S visible
25 Oct - 02:43:09 10° S 02:48:42 12° SSE 02:55:27 10° SE visible
25 Oct - 05:07:57 10° SSW 05:25:26 33° SSE 05:47:14 10° E visible
25 Oct - 07:35:27 10° SW 08:00:34 74° SE 08:23:36 10° ENE daylight
25 Oct - 10:08:47 10° WSW 10:33:48 52° NW 10:51:04 10° NE daylight
25 Oct - 12:55:18 10° WNW 13:05:50 16° NNW 13:13:41 10° N daylight
25 Oct - 20:30:48 10° NW 20:35:09 84° NNE 20:40:27 10° SE visible
25 Oct - 22:58:30 10° SW 23:01:34 14° SSW 23:05:25 10° SSE night (unlit)
26 Oct - 03:56:38 10° SSW 04:09:08 22° SSE 04:25:52 10° ESE visible
26 Oct - 06:22:24 10° SW 06:44:30 55° SE 07:08:48 10° ENE daylight
26 Oct - 08:52:24 10° WSW 09:18:37 73° NW 09:39:17 10° NE daylight
26 Oct - 11:32:10 10° W 11:51:12 28° NW 12:04:12 10° NNE daylight
26 Oct - 19:20:16 10° NNW 19:24:20 29° NE 19:28:17 10° E visible
26 Oct - 21:45:42 10° W 21:49:26 23° SSW 21:54:19 10° SSE night (unlit)
27 Oct - 02:46:29 10° S 02:53:05 13° SSE 03:01:19 10° SE visible
27 Oct - 05:10:20 10° SSW 05:28:30 39° SE 05:51:40 10° E visible
27 Oct - 07:37:52 10° SW 08:02:51 85° SE 08:26:23 10° NE daylight
27 Oct - 10:12:21 10° WSW 10:36:17 44° NW 10:53:26 10° NNE daylight
27 Oct - 13:01:55 10° NW 13:09:35 13° NNW 13:15:43 10° N daylight
27 Oct - 18:10:32 10° N 18:12:56 13° NNE 18:15:05 10° NE visible
27 Oct - 20:33:53 10° WNW 20:38:09 52° SW 20:43:09 10° SE visible
28 Oct - 03:59:08 10° SSW 04:12:44 26° SSE 04:31:25 10° E visible
28 Oct - 06:24:43 10° SW 06:46:56 64° SE 07:12:01 10° ENE daylight
28 Oct - 08:55:20 10° WSW 09:20:54 62° NW 09:41:43 10° NE daylight
28 Oct - 11:37:24 10° WNW 11:54:24 24° NNW 12:06:31 10° NNE daylight
28 Oct - 19:22:40 10° NW 19:27:21 55° NE 19:31:44 10° ESE visible
28 Oct - 21:50:20 10° SW 21:52:48 14° SSW 21:55:40 10° S night (unlit)
29 Oct - 02:49:07 10° S 02:57:10 16° SSE 03:07:42 10° ESE visible
29 Oct - 05:12:39 10° SSW 05:31:14 46° SE 05:55:36 10° ENE visible
29 Oct - 07:40:27 10° SW 08:05:06 83° NW 08:28:59 10° NE daylight
29 Oct - 10:16:24 10° W 10:39:00 37° NW 10:55:45 10° NNE daylight
29 Oct - 13:08:48 10° NW 13:13:40 11° NNW 13:17:50 10° N daylight
29 Oct - 18:11:51 10° NNW 18:16:12 23° NNE 18:19:46 10° E visible
29 Oct - 20:37:24 10° W 20:41:13 28° SSW 20:45:30 10° SSE visible
